Year,Month,Day,Hour,Minute,Value (Times are PST for temperature in C)
2008,01,27,08,27,0.10
2008,01,27,08,28,0.10
2008,01,27,08,29,0.10
2008,01,27,08,30,0.10
2008,01,27,08,31,0.10
2008,01,27,08,32,0.10
2008,01,27,08,33,0.10
2008,01,27,08,34,0.00
2008,01,27,08,35,-0.10
2008,01,27,08,36,-0.10
2008,01,27,08,37,-0.10
2008,01,27,08,38,-0.10
2008,01,27,08,39,-0.10
2008,01,27,08,40,-0.10
2008,01,27,08,41,-0.20
2008,01,27,08,42,-0.20
2008,01,27,08,43,-0.20
2008,01,27,08,44,-0.30
2008,01,27,08,45,-0.30
2008,01,27,08,46,-0.30
2008,01,27,08,47,-0.30
2008,01,27,08,48,-0.30
2008,01,27,08,49,-0.30
2008,01,27,08,50,-0.30
2008,01,27,08,51,-0.30
2008,01,27,08,52,-0.20
2008,01,27,08,53,-0.20
2008,01,27,08,54,-0.20
2008,01,27,08,55,-0.20
2008,01,27,08,56,-0.20
2008,01,27,08,57,-0.20
2008,01,27,08,58,-0.20
2008,01,27,08,59,-0.10
2008,01,27,09,00,-0.10
2008,01,27,09,01,-0.10
2008,01,27,09,02,-0.10
2008,01,27,09,03,0.10
2008,01,27,09,04,0.10
2008,01,27,09,05,0.20
2008,01,27,09,06,0.30
2008,01,27,09,07,0.40
2008,01,27,09,08,0.50
2008,01,27,09,09,0.50
2008,01,27,09,10,0.60
2008,01,27,09,11,0.70
2008,01,27,09,12,0.70
2008,01,27,09,13,0.70
2008,01,27,09,14,0.80
2008,01,27,09,15,0.80
2008,01,27,09,16,0.80
2008,01,27,09,17,0.80
2008,01,27,09,18,0.80
2008,01,27,09,19,0.80
2008,01,27,09,20,0.80
2008,01,27,09,21,0.90
2008,01,27,09,22,0.90
2008,01,27,09,23,0.90
2008,01,27,09,24,0.90
2008,01,27,09,25,1.00
2008,01,27,09,26,1.10
2008,01,27,09,27,1.10
2008,01,27,09,28,1.20
2008,01,27,09,29,1.20
2008,01,27,09,30,1.20
2008,01,27,09,31,1.30
2008,01,27,09,32,1.30
2008,01,27,09,33,1.30
2008,01,27,09,34,1.40
2008,01,27,09,35,1.40
2008,01,27,09,36,1.50
2008,01,27,09,37,1.50
2008,01,27,09,38,1.60
2008,01,27,09,39,1.60
2008,01,27,09,40,1.70
2008,01,27,09,41,1.80
2008,01,27,09,42,1.90
2008,01,27,09,43,2.00
2008,01,27,09,44,2.10
2008,01,27,09,45,2.20
2008,01,27,09,46,2.20
2008,01,27,09,47,2.20
2008,01,27,09,48,2.20
2008,01,27,09,49,2.20
2008,01,27,09,50,2.20
2008,01,27,09,51,2.20
2008,01,27,09,52,2.20
2008,01,27,09,53,2.20
2008,01,27,09,54,2.20
2008,01,27,09,55,2.30
2008,01,27,09,56,2.30
2008,01,27,09,57,2.40
2008,01,27,09,58,2.50
2008,01,27,09,59,2.60
2008,01,27,10,00,2.70
2008,01,27,10,01,2.80
2008,01,27,10,02,2.80
2008,01,27,10,03,2.90
2008,01,27,10,04,2.90
2008,01,27,10,05,3.00
2008,01,27,10,06,3.10
2008,01,27,10,07,3.20
2008,01,27,10,08,3.20
2008,01,27,10,09,3.30
2008,01,27,10,10,3.30
2008,01,27,10,11,3.30
2008,01,27,10,12,3.40
2008,01,27,10,13,3.50
2008,01,27,10,14,3.60
2008,01,27,10,15,3.70
2008,01,27,10,16,3.80
2008,01,27,10,17,3.80
2008,01,27,10,18,3.80
2008,01,27,10,19,3.80
2008,01,27,10,20,3.80
2008,01,27,10,21,3.70
2008,01,27,10,22,3.80
2008,01,27,10,23,3.80
2008,01,27,10,24,3.80
2008,01,27,10,25,3.90
2008,01,27,10,26,3.90
2008,01,27,10,27,4.00
2008,01,27,10,28,3.90
2008,01,27,10,29,3.80
2008,01,27,10,30,3.80
2008,01,27,10,31,3.70
2008,01,27,10,32,3.70
2008,01,27,10,33,3.60
2008,01,27,10,34,3.60
2008,01,27,10,35,3.60
2008,01,27,10,36,3.60
2008,01,27,10,37,3.50
2008,01,27,10,38,3.50
2008,01,27,10,39,3.50
2008,01,27,10,40,3.50
2008,01,27,10,41,3.40
2008,01,27,10,42,3.30
2008,01,27,10,43,3.30
2008,01,27,10,44,3.30
2008,01,27,10,45,3.30
2008,01,27,10,46,3.30
2008,01,27,10,47,3.20
2008,01,27,10,48,3.20
2008,01,27,10,49,3.20
2008,01,27,10,50,3.20
2008,01,27,10,51,3.20
2008,01,27,10,52,3.20
2008,01,27,10,53,3.20
2008,01,27,10,54,3.20
2008,01,27,10,55,3.20
2008,01,27,10,56,3.10
2008,01,27,10,57,3.10
2008,01,27,10,58,3.10
2008,01,27,10,59,3.10
2008,01,27,11,00,3.10
2008,01,27,11,01,3.10
2008,01,27,11,02,3.10
2008,01,27,11,03,3.10
2008,01,27,11,04,3.10
2008,01,27,11,05,3.10
2008,01,27,11,06,3.10
2008,01,27,11,07,3.00
2008,01,27,11,08,2.90
2008,01,27,11,09,2.90
2008,01,27,11,10,2.90
2008,01,27,11,11,2.90
2008,01,27,11,12,2.90
2008,01,27,11,13,2.90
2008,01,27,11,14,2.90
2008,01,27,11,15,2.90
2008,01,27,11,16,2.90
2008,01,27,11,17,3.10
2008,01,27,11,18,3.10
2008,01,27,11,19,3.10
2008,01,27,11,20,3.10
2008,01,27,11,21,3.10
2008,01,27,11,22,3.10
2008,01,27,11,23,3.10
2008,01,27,11,24,3.10
2008,01,27,11,25,3.10
2008,01,27,11,26,3.20
2008,01,27,11,27,3.20
2008,01,27,11,28,3.20
2008,01,27,11,29,3.30
2008,01,27,11,30,3.40
2008,01,27,11,31,3.50
2008,01,27,11,32,3.60
2008,01,27,11,33,3.60
2008,01,27,11,34,3.60
2008,01,27,11,35,3.60
2008,01,27,11,36,3.50
2008,01,27,11,37,3.50
2008,01,27,11,38,3.50
2008,01,27,11,39,3.50
2008,01,27,11,40,3.60
2008,01,27,11,41,3.60
2008,01,27,11,42,3.60
2008,01,27,11,43,3.50
2008,01,27,11,44,3.40
2008,01,27,11,45,3.50
2008,01,27,11,46,3.50
2008,01,27,11,47,3.50
2008,01,27,11,48,3.50
2008,01,27,11,49,3.50
2008,01,27,11,50,3.50
2008,01,27,11,51,3.40
2008,01,27,11,52,3.30
2008,01,27,11,53,3.30
2008,01,27,11,54,3.40
2008,01,27,11,55,3.40
2008,01,27,11,56,3.50
2008,01,27,11,57,3.50
2008,01,27,11,58,3.50
2008,01,27,11,59,3.50
2008,01,27,12,00,3.50
2008,01,27,12,01,3.50
2008,01,27,12,02,3.60
2008,01,27,12,03,3.70
2008,01,27,12,04,3.80
2008,01,27,12,05,3.90
2008,01,27,12,06,3.80
2008,01,27,12,07,3.90
2008,01,27,12,08,4.00
2008,01,27,12,09,3.90
2008,01,27,12,10,3.90
2008,01,27,12,11,4.00
2008,01,27,12,12,4.00
2008,01,27,12,13,4.10
2008,01,27,12,14,4.10
2008,01,27,12,15,4.10
2008,01,27,12,16,4.10
2008,01,27,12,17,4.20
2008,01,27,12,18,4.20
2008,01,27,12,19,4.20
2008,01,27,12,20,4.20
2008,01,27,12,21,4.20
2008,01,27,12,22,4.20
2008,01,27,12,23,4.20
2008,01,27,12,24,4.20
2008,01,27,12,25,4.20
2008,01,27,12,26,4.20
2008,01,27,12,27,4.20
2008,01,27,12,28,4.20
2008,01,27,12,29,4.10
2008,01,27,12,30,4.00
2008,01,27,12,31,3.90
2008,01,27,12,32,3.80
2008,01,27,12,33,3.80
2008,01,27,12,34,3.80
2008,01,27,12,35,3.80
2008,01,27,12,36,3.80
2008,01,27,12,37,3.90
2008,01,27,12,38,3.80
2008,01,27,12,39,3.80
2008,01,27,12,40,3.80
2008,01,27,12,41,3.80
2008,01,27,12,42,3.80
2008,01,27,12,43,3.70
2008,01,27,12,44,3.60
2008,01,27,12,45,3.50
2008,01,27,12,46,3.50
2008,01,27,12,47,3.40
2008,01,27,12,48,3.30
2008,01,27,12,49,3.40
2008,01,27,12,50,3.40
2008,01,27,12,51,3.40
2008,01,27,12,52,3.50
2008,01,27,12,53,3.50
2008,01,27,12,54,3.50
2008,01,27,12,55,3.60
2008,01,27,12,56,3.70
2008,01,27,12,57,3.60
2008,01,27,12,58,3.50
2008,01,27,12,59,3.40
2008,01,27,13,00,3.30
2008,01,27,13,01,3.30
2008,01,27,13,02,3.30
2008,01,27,13,03,3.30
2008,01,27,13,04,3.40
2008,01,27,13,05,3.40
2008,01,27,13,06,3.30
2008,01,27,13,07,3.30
2008,01,27,13,08,3.30
2008,01,27,13,09,3.30
2008,01,27,13,10,3.40
2008,01,27,13,11,3.40
2008,01,27,13,12,3.40
2008,01,27,13,13,3.40
2008,01,27,13,14,3.40
2008,01,27,13,15,3.40
2008,01,27,13,16,3.40
2008,01,27,13,17,3.50
2008,01,27,13,18,3.40
2008,01,27,13,19,3.40
2008,01,27,13,20,3.40
2008,01,27,13,21,3.30
2008,01,27,13,22,3.30
2008,01,27,13,23,3.30
2008,01,27,13,24,3.30
2008,01,27,13,25,3.30
2008,01,27,13,26,3.30
2008,01,27,13,27,3.30
2008,01,27,13,28,3.40
2008,01,27,13,29,3.40
2008,01,27,13,30,3.40
2008,01,27,13,31,3.40
2008,01,27,13,32,3.50
2008,01,27,13,33,3.50
2008,01,27,13,34,3.60
2008,01,27,13,35,3.60
2008,01,27,13,36,3.60
2008,01,27,13,37,3.60
2008,01,27,13,38,3.60
2008,01,27,13,39,3.60
2008,01,27,13,40,3.60
2008,01,27,13,41,3.60
2008,01,27,13,42,3.60
2008,01,27,13,43,3.70
2008,01,27,13,44,3.70
2008,01,27,13,45,3.60
2008,01,27,13,46,3.60
2008,01,27,13,47,3.60
2008,01,27,13,48,3.60
2008,01,27,13,49,3.50
2008,01,27,13,50,3.50
2008,01,27,13,51,3.50
2008,01,27,13,52,3.60
2008,01,27,13,53,3.80
2008,01,27,13,54,3.80
2008,01,27,13,55,4.00
2008,01,27,13,56,4.00
2008,01,27,13,57,4.00
2008,01,27,13,58,4.10
2008,01,27,13,59,4.20
2008,01,27,14,00,4.30
2008,01,27,14,01,4.30
2008,01,27,14,02,4.30
2008,01,27,14,03,4.20
2008,01,27,14,04,4.20
2008,01,27,14,05,4.20
2008,01,27,14,06,4.30
2008,01,27,14,07,4.30
2008,01,27,14,08,4.30
2008,01,27,14,09,4.30
2008,01,27,14,10,4.40
2008,01,27,14,11,4.40
2008,01,27,14,12,4.20
2008,01,27,14,13,4.10
2008,01,27,14,14,4.00
2008,01,27,14,15,4.00
2008,01,27,14,16,4.10
2008,01,27,14,17,4.00
2008,01,27,14,18,4.00
2008,01,27,14,19,3.90
2008,01,27,14,20,3.80
2008,01,27,14,21,3.60
2008,01,27,14,22,3.40
2008,01,27,14,23,3.20
2008,01,27,14,24,3.10
2008,01,27,14,25,2.90
2008,01,27,14,26,2.90
2008,01,27,14,27,2.80
2008,01,27,14,28,2.70
2008,01,27,14,29,2.60
2008,01,27,14,30,2.50
2008,01,27,14,31,2.40
2008,01,27,14,32,2.40
2008,01,27,14,33,2.30
2008,01,27,14,34,2.20
2008,01,27,14,35,2.20
2008,01,27,14,36,2.10
2008,01,27,14,37,2.00
2008,01,27,14,38,1.90
2008,01,27,14,39,1.90
2008,01,27,14,40,1.80
2008,01,27,14,41,1.70
2008,01,27,14,42,1.70
2008,01,27,14,43,1.60
2008,01,27,14,44,1.50
2008,01,27,14,45,1.50
2008,01,27,14,46,1.50
2008,01,27,14,47,1.40
2008,01,27,14,48,1.30
2008,01,27,14,49,1.30
2008,01,27,14,50,1.30
2008,01,27,14,51,1.20
2008,01,27,14,52,1.10
2008,01,27,14,53,1.00
2008,01,27,14,54,1.00
2008,01,27,14,55,0.90
2008,01,27,14,56,0.90
2008,01,27,14,57,0.80
2008,01,27,14,58,0.80
2008,01,27,14,59,0.80
2008,01,27,15,00,0.80
2008,01,27,15,01,0.80
2008,01,27,15,02,0.80
2008,01,27,15,03,0.80
2008,01,27,15,04,0.80
2008,01,27,15,05,0.80
2008,01,27,15,06,0.80
2008,01,27,15,07,0.80
2008,01,27,15,08,0.80
2008,01,27,15,09,0.80
2008,01,27,15,10,0.80
2008,01,27,15,11,0.80
2008,01,27,15,12,0.80
2008,01,27,15,13,0.80
2008,01,27,15,14,0.80
2008,01,27,15,15,0.80
2008,01,27,15,16,0.80
2008,01,27,15,17,0.80
2008,01,27,15,18,0.80
2008,01,27,15,19,0.80
2008,01,27,15,20,0.80
2008,01,27,15,21,0.80
2008,01,27,15,22,0.80
2008,01,27,15,23,0.80
2008,01,27,15,24,0.80
2008,01,27,15,25,0.80
2008,01,27,15,26,0.70
2008,01,27,15,27,0.70
2008,01,27,15,28,0.70
2008,01,27,15,29,0.70
2008,01,27,15,30,0.70
2008,01,27,15,31,0.60
2008,01,27,15,32,0.60
2008,01,27,15,33,0.60
2008,01,27,15,34,0.60
2008,01,27,15,35,0.60
2008,01,27,15,36,0.60
2008,01,27,15,37,0.60
2008,01,27,15,38,0.60
2008,01,27,15,39,0.60
2008,01,27,15,40,0.60
2008,01,27,15,41,0.60
2008,01,27,15,42,0.50
2008,01,27,15,43,0.50
2008,01,27,15,44,0.50
2008,01,27,15,45,0.50
2008,01,27,15,46,0.50
2008,01,27,15,47,0.50
2008,01,27,15,48,0.50
2008,01,27,15,49,0.50
2008,01,27,15,50,0.50
2008,01,27,15,51,0.50
2008,01,27,15,52,0.40
2008,01,27,15,53,0.40
2008,01,27,15,54,0.40
2008,01,27,15,55,0.40
2008,01,27,15,56,0.40
2008,01,27,15,57,0.40
2008,01,27,15,58,0.40
2008,01,27,15,59,0.40
2008,01,27,16,00,0.50
2008,01,27,16,01,0.50
2008,01,27,16,02,0.50
2008,01,27,16,03,0.50
2008,01,27,16,04,0.50
2008,01,27,16,05,0.50
2008,01,27,16,06,0.60
2008,01,27,16,07,0.60
2008,01,27,16,08,0.60
2008,01,27,16,09,0.60
2008,01,27,16,10,0.60
2008,01,27,16,11,0.60
2008,01,27,16,12,0.60
2008,01,27,16,13,0.60
2008,01,27,16,14,0.60
2008,01,27,16,15,0.60
2008,01,27,16,16,0.60
2008,01,27,16,17,0.60
2008,01,27,16,18,0.60
2008,01,27,16,19,0.60
2008,01,27,16,20,0.60
2008,01,27,16,21,0.50
2008,01,27,16,22,0.50
2008,01,27,16,23,0.50
2008,01,27,16,24,0.50
2008,01,27,16,25,0.50
2008,01,27,16,26,0.50
2008,01,27,16,27,0.50
2008,01,27,16,28,0.50
2008,01,27,16,29,0.50
2008,01,27,16,30,0.50
2008,01,27,16,31,0.50
2008,01,27,16,32,0.50
2008,01,27,16,33,0.50
2008,01,27,16,34,0.50
2008,01,27,16,35,0.50
2008,01,27,16,36,0.50
2008,01,27,16,37,0.50
2008,01,27,16,38,0.50
2008,01,27,16,39,0.50
2008,01,27,16,40,0.50
2008,01,27,16,41,0.50
2008,01,27,16,42,0.50
2008,01,27,16,43,0.50
2008,01,27,16,44,0.50
2008,01,27,16,45,0.50
2008,01,27,16,46,0.50
2008,01,27,16,47,0.50
2008,01,27,16,48,0.50
2008,01,27,16,49,0.50
2008,01,27,16,50,0.50
2008,01,27,16,51,0.50
2008,01,27,16,52,0.50
2008,01,27,16,53,0.50
2008,01,27,16,54,0.50
2008,01,27,16,55,0.50
2008,01,27,16,56,0.50
2008,01,27,16,57,0.60
2008,01,27,16,58,0.60
2008,01,27,16,59,0.60
2008,01,27,17,00,0.60
2008,01,27,17,01,0.60
2008,01,27,17,02,0.60
2008,01,27,17,03,0.60
2008,01,27,17,04,0.60
2008,01,27,17,05,0.60
2008,01,27,17,06,0.60
2008,01,27,17,07,0.60
2008,01,27,17,08,0.60
2008,01,27,17,09,0.50
2008,01,27,17,10,0.50
2008,01,27,17,11,0.50
2008,01,27,17,12,0.50
2008,01,27,17,13,0.50
2008,01,27,17,14,0.50
2008,01,27,17,15,0.50
2008,01,27,17,16,0.40
2008,01,27,17,17,0.40
2008,01,27,17,18,0.40
2008,01,27,17,19,0.40
2008,01,27,17,20,0.40
2008,01,27,17,21,0.40
2008,01,27,17,22,0.40
2008,01,27,17,23,0.40
2008,01,27,17,24,0.40
2008,01,27,17,25,0.40
2008,01,27,17,26,0.40
2008,01,27,17,27,0.40
2008,01,27,17,28,0.40
2008,01,27,17,29,0.40
2008,01,27,17,30,0.40
2008,01,27,17,31,0.40
2008,01,27,17,32,0.40
2008,01,27,17,33,0.40
2008,01,27,17,34,0.30
2008,01,27,17,35,0.30
2008,01,27,17,36,0.30
2008,01,27,17,37,0.30
2008,01,27,17,38,0.30
2008,01,27,17,39,0.30
2008,01,27,17,40,0.30
2008,01,27,17,41,0.30
2008,01,27,17,42,0.30
2008,01,27,17,43,0.30
2008,01,27,17,44,0.30
2008,01,27,17,45,0.30
2008,01,27,17,46,0.30
2008,01,27,17,47,0.30
2008,01,27,17,48,0.30
2008,01,27,17,49,0.30
2008,01,27,17,50,0.30
2008,01,27,17,51,0.40
2008,01,27,17,52,0.40
2008,01,27,17,53,0.40
2008,01,27,17,54,0.40
2008,01,27,17,55,0.40
2008,01,27,17,56,0.40
2008,01,27,17,57,0.40
2008,01,27,17,58,0.40
2008,01,27,17,59,0.40
2008,01,27,18,00,0.40
2008,01,27,18,01,0.50
2008,01,27,18,02,0.60
2008,01,27,18,03,0.60
2008,01,27,18,04,0.60
2008,01,27,18,05,0.60
2008,01,27,18,06,0.60
2008,01,27,18,07,0.60
2008,01,27,18,08,0.50
2008,01,27,18,09,0.50
2008,01,27,18,10,0.40
2008,01,27,18,11,0.40
2008,01,27,18,12,0.40
2008,01,27,18,13,0.40
2008,01,27,18,14,0.30
2008,01,27,18,15,0.30
2008,01,27,18,16,0.30
2008,01,27,18,17,0.30
2008,01,27,18,18,0.30
2008,01,27,18,19,0.30
2008,01,27,18,20,0.20
2008,01,27,18,21,0.20
2008,01,27,18,22,0.20
2008,01,27,18,23,0.20
2008,01,27,18,24,0.20
2008,01,27,18,25,0.20
2008,01,27,18,26,0.20
2008,01,27,18,27,0.20
2008,01,27,18,28,0.20
2008,01,27,18,29,0.20
2008,01,27,18,30,0.10
2008,01,27,18,31,0.10
2008,01,27,18,32,0.10
2008,01,27,18,33,0.10
2008,01,27,18,34,0.10
2008,01,27,18,35,0.10
2008,01,27,18,36,0.10
2008,01,27,18,37,0.10
2008,01,27,18,38,0.10
2008,01,27,18,39,0.10
2008,01,27,18,40,0.10
2008,01,27,18,41,0.10
2008,01,27,18,42,0.10
2008,01,27,18,43,0.10
2008,01,27,18,44,0.10
2008,01,27,18,45,0.10
2008,01,27,18,46,0.00
2008,01,27,18,47,-0.10
2008,01,27,18,48,-0.10
2008,01,27,18,49,-0.10
2008,01,27,18,50,-0.10
2008,01,27,18,51,-0.10
2008,01,27,18,52,-0.10
2008,01,27,18,53,-0.10
2008,01,27,18,54,-0.10
2008,01,27,18,55,-0.10
2008,01,27,18,56,-0.10
2008,01,27,18,57,-0.10
2008,01,27,18,58,-0.10
2008,01,27,18,59,-0.10
2008,01,27,19,00,-0.10
2008,01,27,19,01,-0.10
2008,01,27,19,02,-0.10
2008,01,27,19,03,-0.10
2008,01,27,19,04,-0.20
2008,01,27,19,05,-0.20
2008,01,27,19,06,-0.20
2008,01,27,19,07,-0.20
2008,01,27,19,08,-0.30
2008,01,27,19,09,-0.30
2008,01,27,19,10,-0.30
2008,01,27,19,11,-0.30
2008,01,27,19,12,-0.30
2008,01,27,19,13,-0.30
2008,01,27,19,14,-0.40
2008,01,27,19,15,-0.40
2008,01,27,19,16,-0.40
2008,01,27,19,17,-0.40
2008,01,27,19,18,-0.30
2008,01,27,19,19,-0.30
2008,01,27,19,20,-0.30
2008,01,27,19,21,-0.30
2008,01,27,19,22,-0.40
2008,01,27,19,23,-0.40
2008,01,27,19,24,-0.40
2008,01,27,19,25,-0.40
2008,01,27,19,26,-0.40
2008,01,27,19,27,-0.40
2008,01,27,19,28,-0.40
2008,01,27,19,29,-0.40
2008,01,27,19,30,-0.60
2008,01,27,19,31,-0.60
2008,01,27,19,32,-0.60
2008,01,27,19,33,-0.60
2008,01,27,19,34,-0.60
2008,01,27,19,35,-0.60
2008,01,27,19,36,-0.60
2008,01,27,19,37,-0.60
2008,01,27,19,38,-0.60
2008,01,27,19,39,-0.60
2008,01,27,19,40,-0.60
2008,01,27,19,41,-0.60
2008,01,27,19,42,-0.60
2008,01,27,19,43,-0.60
2008,01,27,19,44,-0.60
2008,01,27,19,45,-0.60
2008,01,27,19,46,-0.60
2008,01,27,19,47,-0.60
2008,01,27,19,48,-0.60
2008,01,27,19,49,-0.60
2008,01,27,19,50,-0.60
2008,01,27,19,51,-0.60
2008,01,27,19,52,-0.70
2008,01,27,19,53,-0.70
2008,01,27,19,54,-0.70
2008,01,27,19,55,-0.80
2008,01,27,19,56,-0.80
2008,01,27,19,57,-0.90
2008,01,27,19,58,-0.90
2008,01,27,19,59,-0.90
2008,01,27,20,00,-0.90
2008,01,27,20,01,-0.90
2008,01,27,20,02,-1.00
2008,01,27,20,03,-1.10
2008,01,27,20,04,-1.10
2008,01,27,20,05,-1.10
2008,01,27,20,06,-1.10
2008,01,27,20,07,-1.10
2008,01,27,20,08,-1.10
2008,01,27,20,09,-1.10
2008,01,27,20,10,-1.10
2008,01,27,20,11,-1.10
2008,01,27,20,12,-1.10
2008,01,27,20,13,-1.10
2008,01,27,20,14,-1.10
2008,01,27,20,15,-1.10
2008,01,27,20,16,-1.10
2008,01,27,20,17,-1.10
2008,01,27,20,18,-1.10
2008,01,27,20,19,-1.10
2008,01,27,20,20,-1.10
2008,01,27,20,21,-1.10
2008,01,27,20,22,-1.10
2008,01,27,20,23,-1.10
2008,01,27,20,24,-1.10
2008,01,27,20,25,-1.10
2008,01,27,20,26,-1.10
2008,01,27,20,27,-1.10
2008,01,27,20,28,-1.10
2008,01,27,20,29,-1.10
2008,01,27,20,30,-1.10
2008,01,27,20,31,-1.10
2008,01,27,20,32,-1.20
2008,01,27,20,33,-1.20
2008,01,27,20,34,-1.20
2008,01,27,20,35,-1.20
2008,01,27,20,36,-1.20
2008,01,27,20,37,-1.20
2008,01,27,20,38,-1.20
2008,01,27,20,39,-1.10
2008,01,27,20,40,-1.10
2008,01,27,20,41,-1.10
2008,01,27,20,42,-1.10
2008,01,27,20,43,-1.20
2008,01,27,20,44,-1.20
2008,01,27,20,45,-1.30
2008,01,27,20,46,-1.30
2008,01,27,20,47,-1.40
2008,01,27,20,48,-1.40
2008,01,27,20,49,-1.40
2008,01,27,20,50,-1.40
2008,01,27,20,51,-1.40
2008,01,27,20,52,-1.40
2008,01,27,20,53,-1.40
2008,01,27,20,54,-1.30
2008,01,27,20,55,-1.30
2008,01,27,20,56,-1.30
2008,01,27,20,57,-1.20
2008,01,27,20,58,-1.20
2008,01,27,20,59,-1.10
2008,01,27,21,00,-1.10
2008,01,27,21,01,-1.10
2008,01,27,21,02,-1.10
2008,01,27,21,03,-1.10
2008,01,27,21,04,-1.10
2008,01,27,21,05,-1.10
2008,01,27,21,06,-1.00
2008,01,27,21,07,-0.90
2008,01,27,21,08,-0.90
2008,01,27,21,09,-0.90
2008,01,27,21,10,-0.90
2008,01,27,21,11,-0.90
2008,01,27,21,12,-0.90
2008,01,27,21,13,-0.90
2008,01,27,21,14,-0.90
2008,01,27,21,15,-0.90
2008,01,27,21,16,-0.90
2008,01,27,21,17,-0.90
2008,01,27,21,18,-0.90
2008,01,27,21,19,-0.90
2008,01,27,21,20,-0.90
2008,01,27,21,21,-0.90
2008,01,27,21,22,-0.90
2008,01,27,21,23,-0.90
2008,01,27,21,24,-0.90
2008,01,27,21,25,-0.90
2008,01,27,21,26,-0.90
2008,01,27,21,27,-0.90
2008,01,27,21,28,-1.10
2008,01,27,21,29,-1.10
2008,01,27,21,30,-1.10
2008,01,27,21,31,-1.10
2008,01,27,21,32,-1.10
2008,01,27,21,33,-1.10
2008,01,27,21,34,-1.10
2008,01,27,21,35,-1.10
2008,01,27,21,36,-1.10
2008,01,27,21,37,-1.10
2008,01,27,21,38,-1.10
2008,01,27,21,39,-1.10
2008,01,27,21,40,-1.10
2008,01,27,21,41,-1.10
2008,01,27,21,42,-1.10
2008,01,27,21,43,-1.10
2008,01,27,21,44,-1.10
2008,01,27,21,45,-1.10
2008,01,27,21,46,-1.10
2008,01,27,21,47,-1.10
2008,01,27,21,48,-1.10
2008,01,27,21,49,-1.10
2008,01,27,21,50,-1.10
2008,01,27,21,51,-1.10
2008,01,27,21,52,-1.10
2008,01,27,21,53,-1.10
2008,01,27,21,54,-1.10
2008,01,27,21,55,-1.20
2008,01,27,21,56,-1.20
2008,01,27,21,57,-1.20
2008,01,27,21,58,-1.20
2008,01,27,21,59,-1.20
2008,01,27,22,00,-1.20
2008,01,27,22,01,-1.20
2008,01,27,22,02,-1.30
2008,01,27,22,03,-1.30
2008,01,27,22,04,-1.40
2008,01,27,22,05,-1.40
2008,01,27,22,06,-1.40
2008,01,27,22,07,-1.50
2008,01,27,22,08,-1.50
2008,01,27,22,09,-1.60
2008,01,27,22,10,-1.60
2008,01,27,22,11,-1.60
2008,01,27,22,12,-1.60
2008,01,27,22,13,-1.60
2008,01,27,22,14,-1.60
2008,01,27,22,15,-1.60
2008,01,27,22,16,-1.60
2008,01,27,22,17,-1.60
2008,01,27,22,18,-1.60
2008,01,27,22,19,-1.60
2008,01,27,22,20,-1.50
2008,01,27,22,21,-1.50
2008,01,27,22,22,-1.40
2008,01,27,22,23,-1.40
2008,01,27,22,24,-1.40
2008,01,27,22,25,-1.40
2008,01,27,22,26,-1.40
2008,01,27,22,27,-1.30
2008,01,27,22,28,-1.30
2008,01,27,22,29,-1.30
2008,01,27,22,30,-1.30
2008,01,27,22,31,-1.20
2008,01,27,22,32,-1.20
2008,01,27,22,33,-1.20
2008,01,27,22,34,-1.20
2008,01,27,22,35,-1.10
2008,01,27,22,36,-1.10
2008,01,27,22,37,-1.10
2008,01,27,22,38,-1.10
2008,01,27,22,39,-1.10
2008,01,27,22,40,-1.10
2008,01,27,22,41,-1.10
2008,01,27,22,42,-1.10
2008,01,27,22,43,-1.10
2008,01,27,22,44,-1.10
2008,01,27,22,45,-1.10
2008,01,27,22,46,-1.10
2008,01,27,22,47,-1.10
2008,01,27,22,48,-1.10
2008,01,27,22,49,-1.10
2008,01,27,22,50,-0.90
2008,01,27,22,51,-0.90
2008,01,27,22,52,-0.90
2008,01,27,22,53,-0.90
2008,01,27,22,54,-0.90
2008,01,27,22,55,-0.90
2008,01,27,22,56,-0.90
2008,01,27,22,57,-0.90
2008,01,27,22,58,-0.90
2008,01,27,22,59,-0.90
2008,01,27,23,00,-0.90
2008,01,27,23,01,-0.90
2008,01,27,23,02,-0.90
2008,01,27,23,03,-0.90
2008,01,27,23,04,-0.90
2008,01,27,23,05,-0.90
2008,01,27,23,06,-0.90
2008,01,27,23,07,-0.90
2008,01,27,23,08,-0.90
2008,01,27,23,09,-0.90
2008,01,27,23,10,-0.90
2008,01,27,23,11,-0.90
2008,01,27,23,12,-0.90
2008,01,27,23,13,-0.90
2008,01,27,23,14,-0.90
2008,01,27,23,15,-0.90
2008,01,27,23,16,-0.90
2008,01,27,23,17,-0.90
2008,01,27,23,18,-0.90
2008,01,27,23,19,-0.90
2008,01,27,23,20,-0.90
2008,01,27,23,21,-0.90
2008,01,27,23,22,-0.90
2008,01,27,23,23,-0.90
2008,01,27,23,24,-0.90
2008,01,27,23,25,-0.90
2008,01,27,23,26,-0.90
2008,01,27,23,27,-0.90
2008,01,27,23,28,-0.90
2008,01,27,23,29,-1.00
2008,01,27,23,30,-1.10
2008,01,27,23,31,-1.00
2008,01,27,23,32,-1.00
2008,01,27,23,33,-1.00
2008,01,27,23,34,-0.90
2008,01,27,23,35,-0.90
2008,01,27,23,36,-0.90
2008,01,27,23,37,-0.90
2008,01,27,23,38,-0.90
2008,01,27,23,39,-0.90
2008,01,27,23,40,-0.90
2008,01,27,23,41,-0.90
2008,01,27,23,42,-0.90
2008,01,27,23,43,-0.90
2008,01,27,23,44,-0.90
2008,01,27,23,45,-0.90
2008,01,27,23,46,-0.90
2008,01,27,23,47,-0.90
2008,01,27,23,48,-1.00
2008,01,27,23,49,-1.10
2008,01,27,23,50,-1.10
2008,01,27,23,51,-1.10
2008,01,27,23,52,-1.20
2008,01,27,23,53,-1.30
2008,01,27,23,54,-1.40
2008,01,27,23,55,-1.40
2008,01,27,23,56,-1.40
2008,01,27,23,57,-1.40
2008,01,27,23,58,-1.40
2008,01,27,23,59,-1.40
